TimeEDT,TemperatureF,Dew PointF,Humidity,Sea Level PressureIn,VisibilityMPH,Wind Direction,Wind SpeedMPH,Gust SpeedMPH,PrecipitationIn,Events,Conditions,WindDirDegrees,DateUTC
12:53 AM,63.0,57.9,84,30.10,10.0,North,4.6,-,N/A,,Overcast,350,2013-07-26 04:53:00
1:53 AM,63.0,57.9,84,30.09,10.0,North,3.5,-,N/A,,Overcast,350,2013-07-26 05:53:00
2:53 AM,62.1,57.9,86,30.08,10.0,North,3.5,-,0.00,Rain,Light Rain,350,2013-07-26 06:53:00
3:53 AM,62.1,59.0,90,30.07,10.0,North,6.9,-,0.02,Rain,Light Rain,350,2013-07-26 07:53:00
4:53 AM,61.0,59.0,93,30.06,10.0,North,6.9,-,0.03,Rain,Light Rain,360,2013-07-26 08:53:00
5:03 AM,60.8,59.0,94,30.06,10.0,North,9.2,-,0.00,Rain,Light Rain,360,2013-07-26 09:03:00
5:53 AM,61.0,59.0,93,30.06,10.0,North,8.1,-,0.00,Rain,Light Rain,360,2013-07-26 09:53:00
6:53 AM,61.0,59.0,93,30.06,10.0,North,10.4,-,0.00,Rain,Light Rain,360,2013-07-26 10:53:00
7:53 AM,62.1,59.0,90,30.06,10.0,North,11.5,-,0.01,Rain,Light Rain,360,2013-07-26 11:53:00
8:32 AM,62.6,60.8,94,30.06,8.0,North,9.2,-,0.01,Rain,Light Rain,10,2013-07-26 12:32:00
8:53 AM,62.1,60.1,93,30.06,8.0,North,9.2,-,0.02,Rain,Light Rain,360,2013-07-26 12:53:00
9:12 AM,62.6,60.8,94,30.05,8.0,North,9.2,-,0.01,Rain,Light Rain,10,2013-07-26 13:12:00
9:53 AM,63.0,61.0,93,30.04,9.0,NNE,11.5,-,0.02,Rain,Light Rain,20,2013-07-26 13:53:00
10:53 AM,63.0,61.0,93,30.02,10.0,North,10.4,17.3,0.00,Rain,Light Rain,360,2013-07-26 14:53:00
11:03 AM,62.6,60.8,94,30.01,10.0,North,10.4,-,0.00,Rain,Light Rain,10,2013-07-26 15:03:00
11:36 AM,62.6,60.8,94,30.00,10.0,North,17.3,21.9,0.00,Rain,Light Rain,10,2013-07-26 15:36:00
11:53 AM,64.0,62.1,93,29.99,10.0,North,11.5,-,0.00,Rain,Light Rain,10,2013-07-26 15:53:00
12:53 PM,64.9,63.0,93,29.97,9.0,North,12.7,-,0.01,Rain,Light Rain,10,2013-07-26 16:53:00
1:53 PM,64.9,63.0,93,29.96,5.0,North,10.4,16.1,0.01,Rain,Light Rain,360,2013-07-26 17:53:00
2:23 PM,66.2,64.4,94,29.95,10.0,North,12.7,19.6,0.00,,Overcast,360,2013-07-26 18:23:00
2:53 PM,68.0,64.0,87,29.95,9.0,North,13.8,24.2,0.00,,Overcast,10,2013-07-26 18:53:00
3:53 PM,68.0,63.0,84,29.94,10.0,North,12.7,21.9,N/A,,Overcast,360,2013-07-26 19:53:00
4:18 PM,68.0,62.6,83,29.93,10.0,NNE,13.8,24.2,N/A,,Overcast,20,2013-07-26 20:18:00
4:35 PM,68.0,62.6,83,29.93,10.0,North,18.4,21.9,N/A,,Overcast,10,2013-07-26 20:35:00
4:53 PM,66.0,64.0,93,29.93,2.5,North,10.4,21.9,0.00,Rain,Light Rain,10,2013-07-26 20:53:00
4:56 PM,66.2,64.4,94,29.93,3.0,North,13.8,21.9,0.00,Rain,Light Rain,10,2013-07-26 20:56:00
4:59 PM,66.2,64.4,94,29.93,4.0,North,12.7,-,0.00,Rain,Light Rain,360,2013-07-26 20:59:00
5:11 PM,66.2,64.4,94,29.92,2.5,North,17.3,23.0,0.00,Rain,Light Rain,360,2013-07-26 21:11:00
5:18 PM,66.2,64.4,94,29.92,5.0,North,15.0,23.0,0.00,Rain,Light Rain,360,2013-07-26 21:18:00
5:30 PM,64.4,64.4,100,29.92,2.0,North,15.0,-,0.00,Rain,Light Rain,360,2013-07-26 21:30:00
5:33 PM,66.2,64.4,94,29.92,3.0,North,17.3,25.3,0.00,Rain,Light Rain,360,2013-07-26 21:33:00
5:46 PM,66.2,62.6,88,29.92,10.0,North,15.0,25.3,0.00,,Overcast,360,2013-07-26 21:46:00
5:53 PM,66.0,63.0,90,29.92,10.0,North,13.8,23.0,0.00,,Overcast,10,2013-07-26 21:53:00
6:09 PM,66.2,62.6,88,29.92,9.0,North,10.4,24.2,N/A,,Overcast,10,2013-07-26 22:09:00
6:20 PM,64.4,64.4,100,29.92,2.5,North,13.8,20.7,0.00,Rain,Light Rain,360,2013-07-26 22:20:00
6:44 PM,64.4,64.4,100,29.92,5.0,North,13.8,23.0,0.00,Rain,Light Rain,360,2013-07-26 22:44:00
6:51 PM,64.4,64.4,100,29.92,4.0,North,12.7,-,0.00,Rain,Light Rain,350,2013-07-26 22:51:00
6:53 PM,64.9,64.0,97,29.92,4.0,North,11.5,-,0.00,Rain,Light Rain,360,2013-07-26 22:53:00
7:44 PM,64.4,62.6,94,29.92,10.0,North,12.7,-,0.00,,Overcast,360,2013-07-26 23:44:00
7:53 PM,64.9,62.1,90,29.92,10.0,North,11.5,-,0.00,,Overcast,360,2013-07-26 23:53:00
8:48 PM,64.4,62.6,94,29.92,8.0,North,15.0,20.7,N/A,,Overcast,350,2013-07-27 00:48:00
8:53 PM,64.0,62.1,93,29.92,8.0,North,15.0,-,N/A,,Overcast,350,2013-07-27 00:53:00
9:01 PM,64.4,62.6,94,29.92,10.0,North,12.7,-,N/A,,Overcast,350,2013-07-27 01:01:00
9:53 PM,64.9,61.0,87,29.93,10.0,NW,9.2,-,N/A,,Overcast,320,2013-07-27 01:53:00
10:53 PM,64.9,60.1,84,29.93,10.0,NNW,13.8,-,N/A,,Overcast,340,2013-07-27 02:53:00
11:53 PM,64.0,60.1,87,29.92,10.0,NNW,10.4,-,N/A,,Overcast,330,2013-07-27 03:53:00